Corpus Christi, TX

12:44 AM CST on February 08, 2016 (GMT -0600)
Corpus Christi International

Weather History for KCRP - March, 2013

Change the Weather History Date:

Wednesday, March 13, 2013

  Actual Average Record
Temperature  
Mean Temperature 59 °F 66 °F  
Max Temperature 75 °F 75 °F 94 °F (2005)
Min Temperature 43 °F 56 °F 28 °F (1951)
Degree Days  
Heating Degree Days 6 3  
Month to date heating degree days 42 47  
Since 1 July heating degree days 494 847  
Cooling Degree Days 0 3  
Month to date cooling degree days 35 38  
Year to date cooling degree days 179 114  
Growing Degree Days 9 (Base 50)    
Moisture  
Dew Point 48 °F    
Average Humidity 66    
Maximum Humidity 93    
Minimum Humidity 38    
Precipitation  
Precipitation 0.00 in 0.05 in 1.66 in (1945)
Month to date precipitation 0.06 0.85  
Year to date precipitation 1.75 4.32  
Snow  
Snow 0.00 in - - ()
Month to date snowfall 0.0  
Since 1 July snowfall 0.0  
Snow Depth 0.00 in    
Sea Level Pressure  
Sea Level Pressure 30.33 in    
Wind  
Wind Speed 9 mph (East)    
Max Wind Speed 18 mph    
Max Gust Speed 24 mph    
Visibility 10 miles    
Events Fog    
T = Trace of Precipitation, MM = Missing Value Source: NWS Daily Summary

Daily Weather History Graph

Daily Weather History Graph

Search for Another Location

Airport or City:

Trip Planner

Search our weather history database for the weather conditions in past years. The results will help you decide how hot, cold, wet, or windy it might be!

Date:

Astronomy

Mar. 13, 2013 Rise Set
Actual Time 7:41 AM CDT 7:37 PM CDT
Civil Twilight 7:18 AM CDT 8:01 PM CDT
Nautical Twilight 6:50 AM CDT 8:28 PM CDT
Astronomical Twilight 6:23 AM CDT 8:55 PM CDT
Moon 8:35 AM CDT (3/13) 9:39 PM CDT (3/13)
Length of Visible Light 12h 42m
Length of Day
11h 56m
Waxing Crescent, 4% of the Moon is Illuminated
Mar 13
Waxing Crescent
Mar 19
First Quarter
Mar 27
Full
Apr 2
Last Quarter
Apr 10
New

Hourly Weather History & Observations

Time (CDT) Temp. Dew Point Humidity Pressure Visibility Wind Dir Wind Speed Gust Speed Precip Events Conditions
12:51 AM 54.0 °F 44.1 °F 69% 30.24 in 10.0 mi SSE 6.9 mph - N/A   Clear
1:51 AM 52.0 °F 44.1 °F 74% 30.23 in 10.0 mi SSE 5.8 mph - N/A   Clear
2:51 AM 50.0 °F 43.0 °F 77% 30.24 in 10.0 mi South 4.6 mph - N/A   Clear
3:51 AM 48.9 °F 44.1 °F 83% 30.23 in 10.0 mi SSE 4.6 mph - N/A   Clear
4:35 AM 46.4 °F 42.8 °F 87% 30.24 in 9.0 mi Calm Calm - N/A Fog Patches of Fog
4:51 AM 48.9 °F 46.0 °F 90% 30.25 in 10.0 mi Calm Calm - N/A Fog Patches of Fog
5:51 AM 48.0 °F 44.1 °F 86% 30.27 in 10.0 mi North 6.9 mph - N/A Fog Shallow Fog
6:51 AM 50.0 °F 46.0 °F 86% 30.31 in 10.0 mi North 6.9 mph - N/A   Clear
7:51 AM 48.9 °F 45.0 °F 86% 30.34 in 10.0 mi North 4.6 mph - N/A   Clear
8:51 AM 57.2 °F 51.8 °F 82% 30.37 in 10.0 mi North 15.0 mph - N/A   Partly Cloudy
9:51 AM 63.0 °F 53.1 °F 70% 30.39 in 10.0 mi NE 6.9 mph - N/A   Clear
10:51 AM 68.0 °F 54.0 °F 61% 30.41 in 10.0 mi NE 8.1 mph - N/A   Partly Cloudy
11:51 AM 72.0 °F 53.1 °F 51% 30.41 in 10.0 mi East 10.4 mph - N/A   Scattered Clouds
12:51 PM 73.9 °F 48.0 °F 40% 30.40 in 10.0 mi ENE 12.7 mph 18.4 mph N/A   Scattered Clouds
1:51 PM 73.9 °F 48.9 °F 41% 30.38 in 10.0 mi East 11.5 mph - N/A   Scattered Clouds
2:51 PM 73.9 °F 48.9 °F 41% 30.36 in 10.0 mi ESE 12.7 mph 24.2 mph N/A   Partly Cloudy
3:51 PM 73.0 °F 46.9 °F 39% 30.35 in 10.0 mi East 13.8 mph 23.0 mph N/A   Partly Cloudy
4:51 PM 73.0 °F 50.0 °F 44% 30.33 in 10.0 mi East 16.1 mph - N/A   Partly Cloudy
5:51 PM 71.1 °F 48.0 °F 44% 30.33 in 10.0 mi ESE 17.3 mph - N/A   Partly Cloudy
6:51 PM 68.0 °F 50.0 °F 52% 30.33 in 10.0 mi ESE 17.3 mph - N/A   Clear
7:51 PM 64.9 °F 48.9 °F 56% 30.33 in 10.0 mi ESE 11.5 mph - N/A   Clear
8:51 PM 63.0 °F 51.1 °F 65% 30.35 in 10.0 mi ESE 10.4 mph - N/A   Clear
9:51 PM 61.0 °F 50.0 °F 67% 30.37 in 10.0 mi ESE 6.9 mph - N/A   Clear
10:51 PM 61.0 °F 50.0 °F 67% 30.37 in 10.0 mi ESE 8.1 mph - N/A   Clear
11:51 PM 57.9 °F 48.9 °F 72% 30.37 in 10.0 mi ESE 8.1 mph - N/A   Clear